Regional Weather Roundup
Issued by NWS Burlington, VT

Home | Current Version | Previous Version | Text Only | Print | Product List | Glossary On
Versions: 1 2 3 4 5 6 7 8 9 10 11 12 13 14 15 16 17 18 19 20 21 22 23 24 25 26 27 28 29 30 31 32 33 34 35 36 37 38 39 40 41 42 43 44 45 46 47 48 49 50
000
ASUS41 KBTV 301210
RWRBTV
VERMONT REGIONAL WEATHER ROUNDUP
NATIONAL WEATHER SERVICE BURLINGTON VT
800 AM EDT THU JUL 30 2015

NOTE: "FAIR" INDICATES FEW OR NO CLOUDS BELOW 12,000 FEET WITH NO
SIGNIFICANT WEATHER AND/OR OBSTRUCTIONS TO VISIBILITY.

* THESE REPORTS ARE NOT UNDER NWS QUALITY CONTROL AND/OR DO NOT
  REPORT WEATHER SUCH AS PRECIPITATION AND FOG.

VTZ001>019-301300-
_____VERMONT_____


CITY           SKY/WX    TMP DP  RH WIND       PRES   REMARKS
BURLINGTON     MOSUNNY   78  65  63 S10       29.79F
6HR MIN TEMP:  69; 6HR MAX TEMP:  78;

MONTPELIER     MOSUNNY   67  65  93 CALM      29.90F
6HR MIN TEMP:  62; 6HR MAX TEMP:  67;

MORRISVILLE    MOSUNNY   69  67  93 CALM      29.85F
6HR MIN TEMP:  65; 6HR MAX TEMP:  69;

ST. JOHNSBURY*   N/A     68  63  84 MISG      29.85F
6HR MIN TEMP:  65; 6HR MAX TEMP:  69;

LYNDONVILLE*   FAIR      67  66  97 CALM      29.89F
6HR MIN TEMP:  63; 6HR MAX TEMP:  68;

MIDDLEBURY*    FAIR      77  66  69 S5        29.84S
6HR MIN TEMP:  70; 6HR MAX TEMP:  77;

SPRINGFIELD    SUNNY     68  63  84 CALM      29.89F
6HR MIN TEMP:  61; 6HR MAX TEMP:  68;

HIGHGATE*      FAIR      75  67  76 S5        29.78F
6HR MIN TEMP:  68; 6HR MAX TEMP:  75;

NEWPORT*       FAIR      73  66  77 S5        29.85F
6HR MIN TEMP:  65; 6HR MAX TEMP:  73;

BENNINGTON     SUNNY     75  67  76 CALM      29.88F
6HR MIN TEMP:  63; 6HR MAX TEMP:  75;

SUTTON*          N/A     72 N/A N/A MISG        N/A

_____LAKE CHAMPLAIN_____


CITY           SKY/WX    TMP DP  RH WIND       PRES   REMARKS

$$

NYZ007-026>031-035-052-083-301300-
_____NORTHERN NEW YORK_____


CITY           SKY/WX    TMP DP  RH WIND       PRES   REMARKS
PLATTSBURGH    SUNNY     73  67  81 CALM      29.78F HAZE
6HR MIN TEMP:  64; 6HR MAX TEMP:  73;

SARANAC LAKE   SUNNY     72  66  81 SW5       29.83F
6HR MIN TEMP:  55; 6HR MAX TEMP:  72;

MASSENA        MOSUNNY   77  67  71 S8        29.75F
6HR MIN TEMP:  66; 6HR MAX TEMP:  77;

OGDENSBURG*    PTSUNNY   73  70  88 SW5       29.75S
POTSDAM*       PTSUNNY   79  72  78 SW9       29.76F
WATERTOWN      CLOUDY    77  69  76 SW9       29.77S HAZE
6HR MIN TEMP:  74; 6HR MAX TEMP:  77;

FT DRUM        CLOUDY    78  69  74 SW10      29.77F
6HR MIN TEMP:  73; 6HR MAX TEMP:  78;

ALBANY         PTSUNNY   77  68  73 S10       29.86S
6HR MIN TEMP:  74; 6HR MAX TEMP:  77;

GLENS FALLS    PTSUNNY   75  66  73 S8        29.84F
6HR MIN TEMP:  65; 6HR MAX TEMP:  75;


$$
NHZ002-005-011-301300-
_____NEW HAMPSHIRE_____


CITY           SKY/WX    TMP DP  RH WIND       PRES   REMARKS
LEBANON        SUNNY     70  65  84 CALM      29.87F
6HR MIN TEMP:  62; 6HR MAX TEMP:  70;

KEENE          SUNNY     68  61  77 CALM      29.90S
6HR MIN TEMP:  63; 6HR MAX TEMP:  68;

PLYMOUTH       FOG       65  65 100 CALM      29.88F VSB 3/4
6HR MIN TEMP:  62; 6HR MAX TEMP:  66;

WHITEFIELD     SUNNY     70  64  81 CALM      29.88F
6HR MIN TEMP:  61; 6HR MAX TEMP:  70;


$$

_____REGIONAL QUEBEC LOCATIONS_____


CITY           SKY/WX    TMP DP  RH WIND       PRES   REMARKS
MONTREAL       PTSUNNY   75  66  73 SE5       29.74F
QUEBEC CITY    PTSUNNY   70  61  73 E6        29.79F
SHERBROOKE     SUNNY     73  68  83 VRB2      29.82F

_____REGIONAL ONTARIO LOCATIONS_____


CITY           SKY/WX    TMP DP  RH WIND       PRES   REMARKS
OTTAWA         LGT RAIN  70  68  94 SW8       29.74R

______KEY______
VSB  - VISIBILITY IN MILES
WCI  - WIND CHILL INDEX
HX   - HEAT INDEX
$$
NNNN


USA.gov is the U.S. government's official web portal to all federal, state and local government web resources and services.